TEMELIN Weather Reports


Display with metric or nautical units.
time (UTC)temp
F
wind
direction
speed
MPH
gust
MPH
rain 1hr
in
rain 24hr
in
rain mn
in
humidity
%
barometer
mb
20260905151727 68 270 12.0 0.0 0.00 0.00 0.00 52
20260905141728 70 270 14.0 0.0 0.00 0.00 0.00 49
20260905132031 68 270 14.0 0.0 0.00 0.00 0.00 52
20260905121929 66 280 14.0 0.0 0.00 0.00 0.00 59
20260905111845 68 290 16.0 29.0 0.00 0.00 0.00 56
20260905102240 64 280 12.0 0.0 0.00 0.00 0.00 67
20260905091829 61 270 9.0 0.0 0.00 0.00 0.00 77
20260905081822 57 230 7.0 0.0 0.00 0.00 0.00 87
20260905072123 54 220 7.0 0.0 0.00 0.00 0.00 93
20260905061824 54 240 9.0 0.0 0.00 0.00 0.00 93
20260905051822 55 270 12.0 0.0 0.00 0.00 0.00 87
20260905042224 61 320 14.0 0.0 0.00 0.00 0.00 77
20260905031822 63 310 9.0 0.0 0.00 0.00 0.00 72
20260905021822 64 360 12.0 0.0 0.00 0.00 0.00 63
20260905012123 64 20 20.0 0.0 0.00 0.00 0.00 72
20260905001837 73 280 7.0 0.0 0.00 0.00 0.00 53
20260904231907 73 260 7.0 0.0 0.00 0.00 0.00 53
20260904222254 70 240 7.0 0.0 0.00 0.00 0.00 56
20260904211839 70 230 5.0 0.0 0.00 0.00 0.00 60
20260904201838 73 220 5.0 0.0 0.00 0.00 0.00 49
20260904192123 75 250 7.0 0.0 0.00 0.00 0.00 47
20260904181837 75 240 7.0 0.0 0.00 0.00 0.00 47
20260904171838 79 240 12.0 0.0 0.00 0.00 0.00 41
20260904162122 82 240 16.0 0.0 0.00 0.00 0.00 37